Weather Roundup
Issued by NWS

Home | Current Version | Previous Version | Text Only | Print | Product List | Glossary On
Versions: 1 2 3 4 5 6 7 8 9 10 11 12 13 14 15 16 17 18 19 20 21 22 23 24 25 26 27 28 29 30 31 32 33 34 35 36 37 38 39 40 41 42 43 44 45 46 47 48 49 50
000
NZUS93 KARX 211659
HRRWXR

CURRENT HOURLY OBSERVATIONS ACROSS
MUCH OF THE UPPER MISSISSIPPI VALLEY
NATIONAL WEATHER SERVICE LA CROSSE WI
1200 PM CDT SUN SEP 21 2014


...SOUTHEAST MINNESOTA...


CITY           SKY/WX    TMP DP  RH WIND       PRES   REMARKS
ROCHESTER      PTSUNNY   59  48  67 N17G24    30.11R
ROCHESTER/MAYO CLOUDY    58  45  62 N13G21    30.11R
WINONA         PTSUNNY   61  48  63 NW13G21   30.07R
AUSTIN         PTSUNNY   55  48  76 NW13      30.12R
ALBERT LEA     PTSUNNY   61  48  63 N13       30.14R
DODGE CENTER   CLOUDY    57  52  82 NW14      30.12R
PRESTON        PTSUNNY   59  52  79 N20G26    30.09R
OWATONNA       MOSUNNY   59  48  67 N15G22    30.14R
FARIBAULT      MOSUNNY   64  45  48 NW12      30.14R
$$

...ELSEWHERE IN MINNESOTA...


CITY           SKY/WX    TMP DP  RH WIND       PRES   REMARKS
MINNEAPOLIS    PTSUNNY   60  47  61 N15       30.14R
INTNL FALLS    SUNNY     57  44  62 N7        30.16R
DULUTH         MOSUNNY   58  40  51 N15       30.10R
RED WING       PTSUNNY   61  46  59 N13G18    30.11R
REDWOOD FALLS  PTSUNNY   60  50  69 N13       30.20R
MANKATO        CLOUDY    61  45  55 NW14      30.16R
WORTHINGTON    MOSUNNY   63  46  55 NW17      30.23R
FAIRMONT       CLOUDY    63  45  51 NW17      30.18R
$$

...SOUTHWEST WISCONSIN...


CITY           SKY/WX    TMP DP  RH WIND       PRES   REMARKS
LA CROSSE      PTSUNNY   63  49  60 NW18      30.04R
PRAIRIE DU CHI CLOUDY    58  50  72 NW9G18    30.04R
BOSCOBEL       CLOUDY    61  52  72 N9        30.03R
LONE ROCK      NOT AVBL
PLATTEVILLE    CLOUDY    59  52  77 NW12G20   30.02R
FORT MC COY    CLOUDY    59  47  65 N13       30.03R
CAMP DOUGLAS   PTSUNNY   57  52  82 NW18G24   30.00R
VIROQUA        CLOUDY    58  50  73 N18       30.03R
WIS DELLS      LGT RAIN  59  51  74 NW14G21   29.96R
$$

...ELSEWHERE IN WISCONSIN...


CITY           SKY/WX    TMP DP  RH WIND       PRES   REMARKS
MILWAUKEE      PTSUNNY   62  54  74 NW14G22   29.89R
MADISON        PTSUNNY   61  51  70 N15       29.95R
GREEN BAY      CLOUDY    56  48  74 N16       29.92R
EAU CLAIRE     NOT AVBL
BLACK RVR FLS  PTSUNNY   60  44  56 N14G21    30.03R
MEDFORD        PTSUNNY   55  44  68 N18G25    30.02R
WAUSAU         CLOUDY    53  40  61 NW18G29   29.99R
WIS RAPIDS     PTSUNNY   59  43  55 N14G30    30.01R
MARSHFIELD     PTSUNNY   58  44  60 N16G24    30.01R
RICE LAKE      MOSUNNY   57  47  70 NW12      30.09R
$$

...NORTHEAST IOWA...


CITY           SKY/WX    TMP DP  RH WIND       PRES   REMARKS
WATERLOO       CLOUDY    58  49  72 N20       30.10R
DUBUQUE        CLOUDY    57  50  77 NW16G24   30.04R
DECORAH        CLOUDY    57  50  77 N15G24    30.06R
MASON CITY     CLOUDY    59  50  72 N15       30.15R
CHARLES CITY   CLOUDY    59  50  72 NW15      30.12R
OELWEIN        CLOUDY    59  50  72 N17G26    30.09R
$$

...ELSEWHERE IN IOWA...


CITY           SKY/WX    TMP DP  RH WIND       PRES   REMARKS
DES MOINES     SUNNY     68  47  46 N20G26    30.14R
IOWA CITY        N/A     62  50  64 N16G26    30.09R
FORT DODGE     PTSUNNY   64  48  55 N7G20     30.18R
MARSHALLTOWN   MOSUNNY   64  49  57 N20G25    30.12R
CEDAR RAPIDS   CLOUDY    58  50  75 NW21G26   30.07R
$$

...NORTHERN ILLINOIS...


CITY           SKY/WX    TMP DP  RH WIND       PRES   REMARKS
CHICAGO-OHARE  LGT RAIN  61  50  67 NW15G26   29.91R
DUPAGE         CLOUDY    60  50  69 NW18G29   29.92R
CHICAGO-MIDWAY PTSUNNY   63  51  65 NW15G24   29.90R
MOLINE         PTSUNNY   64  50  60 NW16G24   30.02R
ROCKFORD       CLOUDY    62  50  64 N17G26    29.98R
STERLING       CLOUDY    61  48  63 N15G22    30.00R
PEORIA         SUNNY     69  49  48 NW15G25   29.99R
$$

NOTE: "FAIR" INDICATES FEW OR NO CLOUDS BELOW 12,000 FEET WITH NO
SIGNIFICANT WEATHER AND/OR OBSTRUCTIONS TO VISIBILITY. WIND
SPEEDS ARE IN MILES-PER-HOUR.



USA.gov is the U.S. government's official web portal to all federal, state and local government web resources and services.